Location: Newark
(41.1192°N, 81.5292°W)
Time: 16:44:29
(UTC+00:00)

N. Korean satellite - Pass Details

Date: 17 November 2019
Orbit: 455 x 506 km, 97.2° (Epoch: 12 December)

Event Time Altitude Azimuth Distance (km) Brightness Sun altitude
Rises 10:09:49 0° 35° (NE) 2,613 10.7 -23.7°
Reaches altitude 10° 10:13:18 10° 71° (ENE) 1,713 10.2 -23.0°
Maximum altitude 10:14:32 11° 90° (E) 1,621 10.3 -22.8°
Drops below altitude 10° 10:15:46 10° 110° (ESE) 1,701 10.4 -22.6°
Sets 10:19:11 0° 145° (SE) 2,565 10.8 -21.9°
